Location: Cudham
(51.3000°N, 0.0667°E)
Time: 03:36:35
(UTC+00:00)

Cosmos 1763 Rocket - Pass Details

Date: 15 May 2026
Orbit: 728 x 773 km, 74.0° (Epoch: 8 June)

Event Time Altitude Azimuth Distance (km) Brightness Sun altitude
Exits shadow 22:50:42 - 224° (SW) 2,412 5.8 -18.2°
Reaches altitude 10° 22:50:57 10° 225° (SW) 2,317 5.7 -18.2°
Maximum altitude 22:56:05 50° 301° (WNW) 978 4.3 -18.4°
Drops below altitude 10° 23:01:12 10° 17° (NNE) 2,319 6.9 -18.6°
Sets 23:03:40 0° 23° (NNE) 3,243 7.6 -18.7°
